This is the latest recevied weather packets stored in our database for station/object W4BOD. If no packets are shown the sender has not sent any weather packets the latest 10 day(s).
| Time | Temp. | Humidity | Pressure | Rain* | Wind** | Luminosity | Snow |
|---|---|---|---|---|---|---|---|
| 1777918556 | 26.67° C | 50% | 1011.9 hPa | 0 mm | - | 905 W/m² | - |
| 1777918254 | 26.67° C | 49% | 1012 hPa | 0 mm | - | 913 W/m² | - |
| 1777917953 | 26.67° C | 49% | 1012 hPa | 0 mm | - | 917 W/m² | - |
| 1777917652 | 26.67° C | 48% | 1011.8 hPa | 0 mm | - | 891 W/m² | - |
| 1777917348 | 26.67° C | 49% | 1012 hPa | 0 mm | - | 910 W/m² | - |
| 1777917045 | 26.67° C | 48% | 1012.1 hPa | 0 mm | - | 844 W/m² | - |
| 1777916743 | 26.67° C | 49% | 1012.1 hPa | 0 mm | - | 931 W/m² | - |
| 1777916440 | 26.67° C | 51% | 1012 hPa | 0 mm | - | 922 W/m² | - |
| 1777916136 | 26.11° C | 49% | 1012 hPa | 0 mm | - | 830 W/m² | - |
| 1777915834 | 26.11° C | 50% | 1012 hPa | 0 mm | - | 901 W/m² | - |
| 1777915530 | 26.11° C | 53% | 1012.2 hPa | 0 mm | - | 902 W/m² | - |
| 1777915227 | 26.11° C | 51% | 1012.4 hPa | 0 mm | - | 937 W/m² | - |
| 1777914924 | 25.56° C | 51% | 1012.6 hPa | 0 mm | - | 867 W/m² | - |
| 1777914621 | 25.56° C | 52% | 1012.7 hPa | 0 mm | - | 937 W/m² | - |
| 1777914316 | 25.56° C | 53% | 1012.8 hPa | 0 mm | - | 939 W/m² | - |
| 1777914015 | 25° C | 55% | 1012.7 hPa | 0 mm | - | 902 W/m² | - |
| 1777913710 | 25° C | 54% | 1012.8 hPa | 0 mm | - | 870 W/m² | - |
| 1777913407 | 25° C | 55% | 1012.8 hPa | 0 mm | - | 874 W/m² | - |
| 1777913103 | 25° C | 57% | 1013.1 hPa | 0 mm | - | 779 W/m² | - |
| 1777912800 | 24.44° C | 54% | 1013.2 hPa | 0 mm | - | 875 W/m² | - |
| 1777912495 | 24.44° C | 54% | 1013.3 hPa | 0 mm | - | 837 W/m² | - |
| 1777912192 | 24.44° C | 53% | 1013.3 hPa | 0 mm | - | 813 W/m² | - |
| 1777911889 | 24.44° C | 57% | 1013.3 hPa | 0 mm | - | 845 W/m² | - |
| 1777911585 | 24.44° C | 53% | 1013.4 hPa | 0 mm | - | 735 W/m² | - |
| 1777911281 | 23.89° C | 55% | 1013.4 hPa | 0 mm | - | 879 W/m² | - |
* Rain latest hour (hover to see other rain measurements)
** Current wind speed in m/s (hover to see current wind gust speed)